Regional Weather Roundup
Issued by NWS

Home | Current Version | Previous Version | Graphics & Text | Print | Product List | Glossary On
Versions: 1 2 3 4 5 6 7 8 9 10 11 12 13 14 15 16 17 18 19 20 21 22 23 24 25 26 27 28 29 30 31 32 33 34 35 36 37 38 39 40 41 42 43 44 45 46 47 48 49 50
000
ASUS43 KDTX 282101
RWRMI
MICHIGAN HOURLY REGIONAL WEATHER ROUNDUP
NATIONAL WEATHER SERVICE DETROIT/PONTIAC MI
500 PM EDT WED JUN 28 2017

NOTE: "FAIR" INDICATES FEW OR NO CLOUDS BELOW 12,000 FEET WITH NO
SIGNIFICANT WEATHER AND/OR OBSTRUCTION TO VISIBILITY.

MIZ047>049-052>055-059>063-066>070-074>076-081>083-282200-
SOUTHEAST LOWER MICHIGAN

CITY           SKY/WX    TMP DP  RH WIND       PRES   REMARKS
ADRIAN         CLOUDY    76  48  37 SW14      30.00F
ALMA           DRIZZLE   71  55  56 S10       29.93F
ANN ARBOR      CLOUDY    74  51  44 S13G18    30.00F
BAD AXE        CLOUDY    73  49  42 S17       29.96F
CARO           CLOUDY    73  54  51 S10       29.94F
DETROIT CITY   CLOUDY    77  50  38 SW16G22   30.01F
DETROIT        CLOUDY    77  51  40 SW14G25   30.02F
FLINT          CLOUDY    74  50  42 S10       29.95F
GROSSE ILE     CLOUDY    74  55  51 S15       30.01F
HILLSDALE      CLOUDY    73  48  40 S12G22    29.98F
HOWELL         PTSUNNY   73  47  39 S13       29.94F

CITY           SKY/WX    TMP DP  RH WIND       PRES   REMARKS
JACKSON        PTSUNNY   75  48  38 S16G24    29.93F
LAMBERTVILLE   PTSUNNY   76  50  39 SW9       30.01F
LANSING        CLOUDY    74  51  44 S14G23    29.93F
LAPEER         FAIR      75  48  38 S10G20    29.98F
MASON          CLOUDY    73  52  48 S12       29.94F
MONROE         CLOUDY    76  49  39 S13G21    30.02F
MT. CLEMENS    CLOUDY    77  51  39 S16G23    30.00F
PONTIAC        CLOUDY    75  49  39 S12G20    29.99F
PORT HOPE        N/A     74  50  42 S7G20     29.94F
PORT HURON     CLOUDY    73  48  40 S14G22    30.01F
TRI CITIES     CLOUDY    74  55  51 S13       29.94F
MIDLAND        LGT RAIN  72  55  53 S6        29.92S
TROY           CLOUDY    77  43  29 S12       30.02F
SAGINAW HB     CLOUDY    73  48  40 S12       29.94F
$$
MIZ043>046-050>051-056>058-064>065-071>073-077>080-282200-
SOUTHWEST LOWER MICHIGAN

CITY           SKY/WX    TMP DP  RH WIND       PRES   REMARKS
BATTLE CREEK   CLOUDY    74  53  48 S20G30    29.94S
BENTON HARBOR  CLOUDY    76  54  46 S15G28    29.89F
BIG RAPIDS     LGT RAIN  66  57  71 S5        29.91F
COLDWATER      CLOUDY    74  49  41 S12       29.97R
FREMONT        LGT RAIN  69  58  67 SE6       29.89F
HOLLAND        CLOUDY    73  58  59 S9        29.90F
GRAND RAPIDS   CLOUDY    73  58  59 S10       29.92S
IONIA          FAIR      73  53  50 S13       29.93S
KALAMAZOO      CLOUDY    75  52  44 S15G28    29.92R
LUDINGTON      RAIN      64  61  91 S14G22    29.85F
MARSHALL       CLOUDY    74  53  46 S14G24    29.95R
MOUNT PLEASANT LGT RAIN  71  54  55 S7        29.93S
MUSKEGON       LGT RAIN  72  58  61 S14G24    29.88F
SOUTH HAVEN    CLOUDY    74  56  53 S14G20    29.90R
$$
MIZ016>042-282200-
NORTHERN LOWER MICHIGAN

CITY           SKY/WX    TMP DP  RH WIND       PRES   REMARKS
ALPENA         CLOUDY    74  53  48 S13G22    29.90F
BELLAIRE       RAIN      62  60  92 CALM      29.89F
CADILLAC       RAIN      63  60  91 S10       29.89F
CHARLEVOIX     RAIN      63  61  95 S10G17    29.90F
FRANKFORT      RAIN      63  59  87 S14G20    29.84F
GAYLORD        RAIN      62  56  80 SW10      29.92R
GRAYLING       RAIN      62  59  90 S5        29.93S
HARBOR SPRINGS LGT RAIN  63  61  94 S7        29.89R
HOUGHTON LAKE  LGT RAIN  64  59  83 S7        29.93S
MANISTEE       LGT RAIN  63  61  93 S9        29.85F
OSCODA         CLOUDY    72  49  43 S12G22    29.92F
PELLSTON       LGT RAIN  65  58  78 VRB6      29.88R
ROGERS CITY    CLOUDY    72  54  52 S7        29.88F
TRAVERSE CITY  LGT RAIN  64  60  87 VRB5      29.85F FOG
$$
MIZ007>008-015-282200-
EASTERN UPPER MICHIGAN

CITY           SKY/WX    TMP DP  RH WIND       PRES   REMARKS
KINROSS        CLOUDY    70  54  56 S8        29.87R
MACKINAC ISLAN LGT RAIN  64  60  87 SW7       29.88R
NEWBERRY       LGT RAIN  60  59  97 S12G17    29.85F
S. S. MARIE    LGT RAIN  71  54  54 S6        29.85S
MUNISING         N/A     62  60  93 S10G18    29.76F
$$
MIZ004>006-011>014-085-282200-
CENTRAL UPPER MICHIGAN

CITY           SKY/WX    TMP DP  RH WIND       PRES   REMARKS
MANISTIQUE     CLOUDY    59  55  89 S14       29.82F
ESCANABA       LGT RAIN  63  60  90 S10       29.77F
MENOMINEE      LGT RAIN  61  60  97 S10       29.76F FOG
SAWYER-GWINN   CLOUDY    61  59  94 S13       29.76
$$
MIZ001>003-009>011-084-282200-
WESTERN UPPER MICHIGAN

CITY           SKY/WX    TMP DP  RH WIND       PRES   REMARKS
IRON MOUNTAIN  LGT RAIN  64  60  87 SE10      29.72F
HOUGHTON       LGT RAIN  62  59  90 SE5       29.68F
COPPER HARBOR    N/A     66  55  67 VRB6      29.68F
IRONWOOD       CLOUDY    64  61  90 S10       29.64S
$$

ABBREVIATIONS USED IN REMARKS
   TC - TEMPERATURE IN CELSIUS
  WCI - WIND CHILL INDEX
   HX - HEAT INDEX
  VSB - VISIBILITY





USA.gov is the U.S. government's official web portal to all federal, state and local government web resources and services.